[[{"header":{"parameterUnit":"m.s-1","parameterCategory":2,"la1":30.2992,"la2":30.254,"lo1":-89.0895,"lo2":-89.0443,"dy":0.0025,"dx":0.0025,"nx":19,"ny":19,"refTime":"2026-04-19T09:00:00:Z","depth":"0","parameterNumber":2,"parameterNumberName":"U-component_of_CURRENTS"},"data":[0,0,0,-0.3318,-0.332,-0.3415,-0.3415,-0.3473,-0.3474,0,0,0,0,0,0,0,0,0,0,0,-0.3265,-0.3266,-0.3317,-0.332,-0.3415,-0.3415,-0.3473,-0.3474,0,0,0,0,0,0,0,0,0,0,0,-0.3265,-0.3265,-0.3266,-0.3321,-0.3415,-0.3415,-0.3473,-0.3414,0,0,0,0,0,0,0,0,0,0,-0.3329,-0.3283,-0.3265,-0.3266,-0.3321,-0.3415,-0.3415,-0.3412,-0.3418,-0.3417,0,-0.3429,0,-0.3467,-0.3477,-0.3478,0,0,0,-0.3307,-0.3278,-0.3321,-0.3266,-0.3322,-0.3415,-0.3368,-0.3416,-0.3422,-0.3424,-0.3431,-0.3434,-0.3468,-0.3478,-0.3478,-0.3594,-0.3595,0,0,-0.3302,-0.3266,-0.3316,-0.3325,-0.3344,-0.3365,-0.3372,-0.342,-0.3414,-0.3431,-0.3436,-0.3469,-0.3478,-0.3479,-0.3593,-0.3595,0,0,0,-0.3296,-0.3262,-0.3304,-0.3321,-0.3352,-0.3369,-0.3375,-0.3411,-0.343,-0.3437,-0.347,-0.3479,-0.3479,-0.3593,-0.3594,-0.3635,0,0,0,-0.3292,-0.3261,-0.3302,-0.3279,-0.3351,-0.339,-0.3365,-0.3426,-0.3434,-0.3469,-0.3479,-0.348,-0.3592,-0.3593,-0.3632,-0.3658,0,0,0,-0.3261,-0.3258,-0.3271,-0.3278,-0.333,-0.3391,-0.3411,-0.3429,-0.3454,-0.3478,-0.348,-0.3591,-0.3593,-0.3629,-0.3654,-0.3675,0,0,0,-0.3218,-0.3252,-0.327,-0.3326,-0.3329,-0.3439,-0.3412,-0.3474,-0.3499,-0.3479,-0.3592,-0.3594,-0.3628,-0.3651,-0.3672,-0.3568,-0.3572,0,0,-0.3246,-0.3254,-0.3295,-0.3315,-0.3423,-0.3425,-0.353,-0.3538,-0.3529,-0.3566,-0.357,-0.3633,-0.3653,-0.3674,-0.3686,-0.3686,0,0,0,-0.3297,-0.3317,-0.3356,-0.3418,-0.3496,-0.3562,-0.3588,-0.3601,-0.3631,-0.3557,-0.3663,-0.3676,-0.3686,-0.3619,-0.3621,-0.3567,-0.3603,-0.3603,-0.3603,-0.3246,-0.3325,-0.3397,-0.3494,-0.3566,-0.3657,-0.3706,-0.3728,-0.3701,-0.3725,-0.3731,-0.3808,-0.3739,-0.3738,-0.3686,-0.3752,-0.3752,-0.3752,-0.3752,-0.3268,-0.33,-0.3414,-0.3501,-0.36,-0.3679,-0.3801,-0.3802,-0.3856,-0.3816,-0.3823,-0.3694,-0.3741,-0.3685,-0.3756,-0.3755,-0.3755,-0.3754,-0.3754,-0.3203,-0.3229,-0.3301,-0.3427,-0.3545,-0.3671,-0.3776,-0.3857,-0.3887,-0.3918,-0.3813,-0.381,-0.3739,-0.39,-0.3901,-0.3901,-0.3901,-0.3901,-0.3901,-0.3072,-0.3164,-0.3192,-0.3348,-0.341,-0.3544,-0.3749,-0.3817,-0.3869,-0.3865,-0.3863,-0.3764,-0.3853,-0.3822,-0.3905,-0.3904,-0.3904,-0.3904,-0.3903,-0.2945,-0.2986,-0.3031,-0.3084,-0.3248,-0.3315,-0.3571,-0.3712,-0.3805,-0.3805,-0.3734,-0.3832,-0.3806,-0.3803,-0.3772,-0.3837,-0.3837,-0.3837,-0.3837,-0.2808,-0.2852,-0.2848,-0.2899,-0.3013,-0.3189,-0.3246,-0.3427,-0.3583,-0.3586,-0.3681,-0.3614,-0.3619,-0.3579,-0.3582,-0.3545,-0.3552,-0.3552,-0.3552,-0.268,-0.2719,-0.2649,-0.2747,-0.2877,-0.2999,-0.2998,-0.3168,-0.3407,-0.354,-0.3636,-0.3648,-0.3551,-0.3563,-0.3499,-0.3506,-0.3446,0,0]},{"header":{"parameterUnit":"m.s-1","parameterCategory":2,"la1":30.2992,"la2":30.254,"lo1":-89.0895,"lo2":-89.0443,"dy":0.0025,"dx":0.0025,"nx":19,"ny":19,"refTime":"2026-04-19T09:00:00:Z","depth":"0","parameterNumber":3,"parameterNumberName":"V-component_of_CURRENTS"},"data":[0,0,0,-0.0414,-0.0412,-0.0255,-0.0254,-0.0002,0.0,0,0,0,0,0,0,0,0,0,0,0,-0.0471,-0.0471,-0.0415,-0.0412,-0.0255,-0.0254,-0.0002,0.0,0,0,0,0,0,0,0,0,0,0,0,-0.0471,-0.0471,-0.0471,-0.0411,-0.0256,-0.0254,-0.0003,-0.0127,0,0,0,0,0,0,0,0,0,0,-0.0283,-0.0361,-0.0471,-0.0471,-0.0411,-0.0256,-0.0254,-0.0133,-0.0119,-0.0067,0,-0.0063,0,-0.0035,0.0016,0.0016,0,0,0,-0.0383,-0.0373,-0.0328,-0.0471,-0.041,-0.0256,-0.0318,-0.0126,-0.011,-0.0048,-0.006,-0.005,-0.0031,0.0017,0.0018,0.0159,0.0159,0,0,-0.0392,-0.0435,-0.0339,-0.0319,-0.0394,-0.0323,-0.0313,-0.0116,-0.0111,-0.0059,-0.0044,-0.0027,0.0019,0.002,0.0159,0.0159,0,0,0,-0.0436,-0.0442,-0.0402,-0.0329,-0.031,-0.0319,-0.0308,-0.0119,-0.0106,-0.0042,-0.0024,0.002,0.0023,0.0159,0.0159,0.0021,0,0,0,-0.044,-0.0469,-0.0406,-0.0429,-0.0315,-0.0222,-0.0316,-0.012,-0.0097,-0.0025,0.002,0.0025,0.016,0.0159,0.0025,-0.0052,0,0,0,-0.0474,-0.0472,-0.0462,-0.0432,-0.0377,-0.0225,-0.0199,-0.0114,-0.0087,0.0017,0.0026,0.016,0.0159,0.0029,-0.0045,-0.002,0,0,0,-0.0511,-0.0546,-0.0464,-0.0492,-0.0379,-0.0321,-0.02,-0.0134,-0.0059,0.0021,0.016,0.0159,0.003,-0.004,-0.0017,0.0077,0.0069,0,0,-0.0584,-0.0555,-0.0573,-0.0497,-0.0498,-0.0339,-0.0306,-0.0156,-0.0042,0.0105,0.0108,0.0024,-0.0044,-0.002,0.0051,0.0044,0,0,0,-0.0615,-0.0633,-0.0617,-0.0594,-0.0511,-0.0425,-0.0269,-0.0183,-0.0049,-0.0003,0.0054,0.0016,0.0036,0.0101,0.0095,0.0458,0.0157,0.0157,0.0157,-0.076,-0.0719,-0.0756,-0.0692,-0.0638,-0.0473,-0.0387,-0.0233,-0.0117,-0.008,-0.0075,-0.0125,-0.0058,-0.0061,0.0312,-0.0038,-0.0038,-0.0039,-0.0039,-0.0902,-0.0933,-0.0866,-0.0888,-0.0768,-0.0708,-0.0489,-0.0385,-0.0235,-0.0158,-0.013,-0.0022,-0.0075,0.0325,-0.0047,-0.0046,-0.0045,-0.0044,-0.0043,-0.1012,-0.1027,-0.1026,-0.1046,-0.1003,-0.0851,-0.0779,-0.0584,-0.0378,-0.035,-0.0185,-0.0181,0.0158,-0.031,-0.031,-0.0311,-0.0311,-0.0311,-0.0311,-0.1131,-0.1133,-0.1205,-0.1203,-0.1215,-0.1156,-0.0934,-0.0795,-0.0504,-0.0326,-0.0323,0.02,-0.0205,-0.021,-0.0315,-0.0314,-0.0314,-0.0314,-0.0313,-0.1275,-0.1266,-0.1391,-0.1432,-0.1453,-0.1444,-0.122,-0.0854,-0.0648,-0.048,0.0207,-0.0262,-0.0192,-0.0184,-0.0185,-0.0278,-0.0278,-0.0278,-0.0278,-0.1365,-0.1373,-0.1545,-0.1641,-0.1683,-0.1577,-0.1391,-0.0934,-0.0151,0.0289,0.0426,0.055,0.0532,0.0654,0.0643,0.0663,0.0788,0.079,0.0791,-0.1458,-0.1505,-0.1643,-0.1729,-0.179,-0.17,-0.1498,-0.0922,0.0285,0.0871,0.0915,0.0869,0.1086,0.1029,0.1246,0.1202,0.1243,0,0]}],[{"header":{"parameterUnit":"m.s-1","parameterCategory":2,"la1":30.2992,"la2":30.254,"lo1":-89.0895,"lo2":-89.0443,"dy":0.0025,"dx":0.0025,"nx":19,"ny":19,"refTime":"2026-04-19T09:00:00:Z","depth":"2","parameterNumber":2,"parameterNumberName":"U-component_of_CURRENTS"},"data":[0,0,0,-0.3194,-0.3196,-0.3294,-0.3294,-0.335,-0.335,0,0,0,0,0,0,0,0,0,0,0,-0.3141,-0.3142,-0.3193,-0.3196,-0.3294,-0.3294,-0.335,-0.335,0,0,0,0,0,0,0,0,0,0,0,-0.3141,-0.3142,-0.3142,-0.3197,-0.3294,-0.3294,-0.335,-0.329,0,0,0,0,0,0,0,0,0,0,-0.3202,-0.3159,-0.3141,-0.3142,-0.3197,-0.3294,-0.3294,-0.3288,-0.3294,-0.329,0,-0.3304,0,-0.3342,-0.3354,-0.3354,0,0,0,-0.3183,-0.3154,-0.3196,-0.3142,-0.3198,-0.3294,-0.3246,-0.3291,-0.3298,-0.3297,-0.3306,-0.3309,-0.3343,-0.3354,-0.3354,-0.3466,-0.3467,0,0,-0.3178,-0.3144,-0.3192,-0.32,-0.3222,-0.3243,-0.3249,-0.3296,-0.3291,-0.3306,-0.3311,-0.3344,-0.3354,-0.3355,-0.3465,-0.3466,0,0,0,-0.3171,-0.314,-0.3181,-0.3197,-0.3228,-0.3246,-0.3253,-0.3289,-0.3307,-0.3312,-0.3344,-0.3355,-0.3355,-0.3464,-0.3465,-0.3509,0,0,0,-0.3167,-0.3138,-0.3179,-0.3157,-0.3227,-0.3268,-0.3244,-0.3303,-0.3311,-0.3344,-0.3355,-0.3356,-0.3463,-0.3465,-0.3506,-0.3532,0,0,0,-0.3137,-0.3135,-0.3149,-0.3156,-0.3209,-0.3269,-0.3289,-0.3306,-0.3331,-0.3354,-0.3356,-0.3463,-0.3464,-0.3503,-0.3528,-0.3548,0,0,0,-0.3095,-0.313,-0.3147,-0.3204,-0.3208,-0.3316,-0.3289,-0.3351,-0.3376,-0.3355,-0.3463,-0.3465,-0.3502,-0.3525,-0.3545,-0.3425,-0.3428,0,0,-0.3123,-0.3131,-0.3172,-0.3193,-0.3297,-0.3302,-0.3404,-0.3414,-0.3404,-0.3438,-0.3441,-0.3507,-0.3527,-0.3548,-0.3541,-0.354,0,0,0,-0.3173,-0.3193,-0.3232,-0.3293,-0.337,-0.3434,-0.3461,-0.3474,-0.3506,-0.3433,-0.3536,-0.3548,-0.3559,-0.3481,-0.3482,-0.3475,-0.3475,-0.3474,-0.3474,-0.3128,-0.3203,-0.3273,-0.3367,-0.3437,-0.3528,-0.3576,-0.3599,-0.3573,-0.3598,-0.3605,-0.3681,-0.3601,-0.36,-0.3625,-0.3625,-0.3625,-0.3626,-0.3626,-0.315,-0.318,-0.329,-0.3376,-0.3473,-0.3551,-0.367,-0.3673,-0.3727,-0.3688,-0.3695,-0.3558,-0.3602,-0.363,-0.3629,-0.3628,-0.3628,-0.3628,-0.3627,-0.3089,-0.3113,-0.3185,-0.3307,-0.3424,-0.3547,-0.3649,-0.373,-0.376,-0.3792,-0.3676,-0.3673,-0.3687,-0.3776,-0.3776,-0.3777,-0.3777,-0.3777,-0.3777,-0.2963,-0.3052,-0.308,-0.3233,-0.3294,-0.3424,-0.3626,-0.3691,-0.3736,-0.3728,-0.3726,-0.3732,-0.3727,-0.3697,-0.3781,-0.378,-0.378,-0.3779,-0.3779,-0.284,-0.2881,-0.2925,-0.2976,-0.3135,-0.3176,-0.3442,-0.3571,-0.3666,-0.366,-0.3686,-0.3687,-0.3658,-0.3656,-0.3625,-0.3685,-0.3685,-0.3685,-0.3685,-0.2708,-0.2751,-0.2747,-0.2795,-0.2901,-0.3044,-0.3028,-0.3097,-0.3291,-0.3282,-0.3299,-0.3211,-0.3225,-0.3166,-0.3175,-0.3132,-0.3064,-0.3062,-0.3061,-0.2583,-0.2622,-0.2552,-0.2645,-0.2767,-0.2833,-0.2688,-0.2534,-0.2684,-0.3029,-0.3109,-0.3659,-0.3574,-0.3579,-0.3523,-0.3524,-0.3468,0,0]},{"header":{"parameterUnit":"m.s-1","parameterCategory":2,"la1":30.2992,"la2":30.254,"lo1":-89.0895,"lo2":-89.0443,"dy":0.0025,"dx":0.0025,"nx":19,"ny":19,"refTime":"2026-04-19T09:00:00:Z","depth":"2","parameterNumber":3,"parameterNumberName":"V-component_of_CURRENTS"},"data":[0,0,0,-0.0384,-0.0382,-0.0229,-0.0228,0.0021,0.0023,0,0,0,0,0,0,0,0,0,0,0,-0.044,-0.044,-0.0384,-0.0382,-0.0229,-0.0228,0.0021,0.0023,0,0,0,0,0,0,0,0,0,0,0,-0.044,-0.044,-0.0439,-0.0381,-0.0229,-0.0227,0.002,-0.0102,0,0,0,0,0,0,0,0,0,0,-0.0254,-0.0331,-0.044,-0.0439,-0.0381,-0.0229,-0.0227,-0.0108,-0.0094,-0.0042,0,-0.0039,0,-0.0011,0.0039,0.0039,0,0,0,-0.0353,-0.0343,-0.0299,-0.0439,-0.038,-0.0229,-0.029,-0.01,-0.0085,-0.0024,-0.0035,-0.0026,-0.0007,0.004,0.0041,0.0181,0.0181,0,0,-0.0362,-0.0405,-0.031,-0.029,-0.0365,-0.0295,-0.0285,-0.0091,-0.0086,-0.0034,-0.002,-0.0003,0.0042,0.0043,0.0181,0.0181,0,0,0,-0.0405,-0.0411,-0.0372,-0.03,-0.0281,-0.0291,-0.028,-0.0094,-0.0081,-0.0017,-0.0,0.0043,0.0046,0.0182,0.0181,0.0045,0,0,0,-0.0409,-0.0438,-0.0377,-0.0399,-0.0286,-0.0196,-0.0288,-0.0095,-0.0072,-0.0001,0.0043,0.0048,0.0182,0.0182,0.0049,-0.0029,0,0,0,-0.0443,-0.0441,-0.0431,-0.0402,-0.0348,-0.0198,-0.0173,-0.0089,-0.0062,0.004,0.0049,0.0182,0.0182,0.0052,-0.0021,0.0002,0,0,0,-0.0479,-0.0513,-0.0433,-0.046,-0.035,-0.0292,-0.0174,-0.0108,-0.0035,0.0044,0.0182,0.0181,0.0054,-0.0017,0.0005,0.0086,0.0077,0,0,-0.055,-0.0522,-0.0539,-0.0464,-0.0465,-0.031,-0.0276,-0.0129,-0.0017,0.0128,0.0131,0.0047,-0.0021,0.0002,0.0062,0.0053,0,0,0,-0.058,-0.0598,-0.0581,-0.0559,-0.0477,-0.0393,-0.024,-0.0155,-0.0024,0.0021,0.0078,0.0039,0.0058,0.0115,0.0109,0.0179,0.0179,0.018,0.018,-0.0722,-0.0682,-0.0717,-0.0654,-0.0601,-0.044,-0.0356,-0.0204,-0.009,-0.0053,-0.005,-0.0099,-0.0041,-0.0045,-0.0011,-0.0012,-0.0013,-0.0013,-0.0013,-0.0862,-0.0892,-0.0826,-0.0847,-0.0731,-0.0671,-0.0457,-0.0354,-0.0207,-0.0131,-0.0104,-0.0005,-0.006,-0.0024,-0.0022,-0.002,-0.0019,-0.0018,-0.0018,-0.0971,-0.0985,-0.0985,-0.1004,-0.0964,-0.0814,-0.0745,-0.0554,-0.035,-0.0323,-0.0169,-0.0165,-0.0174,-0.0284,-0.0285,-0.0285,-0.0285,-0.0285,-0.0285,-0.1089,-0.109,-0.1162,-0.1161,-0.1173,-0.1117,-0.0901,-0.0767,-0.0485,-0.031,-0.0307,-0.0189,-0.018,-0.0185,-0.029,-0.0289,-0.0288,-0.0288,-0.0288,-0.1232,-0.1224,-0.1348,-0.1389,-0.1412,-0.1401,-0.1187,-0.0838,-0.0636,-0.0475,-0.0254,-0.0253,-0.0186,-0.0177,-0.018,-0.0276,-0.0276,-0.0276,-0.0276,-0.1323,-0.1331,-0.1502,-0.1598,-0.1641,-0.1533,-0.136,-0.0954,-0.0518,-0.0287,-0.0287,-0.0235,-0.0233,-0.0165,-0.0156,-0.0156,-0.0247,-0.0248,-0.0248,-0.1416,-0.1462,-0.16,-0.1686,-0.1747,-0.1654,-0.1463,-0.0981,-0.0386,-0.0254,-0.0353,-0.0261,-0.0178,-0.0179,-0.0063,-0.0054,-0.0049,0,0]}],[{"header":{"parameterUnit":"m.s-1","parameterCategory":2,"la1":30.2992,"la2":30.254,"lo1":-89.0895,"lo2":-89.0443,"dy":0.0025,"dx":0.0025,"nx":19,"ny":19,"refTime":"2026-04-19T09:00:00:Z","depth":"4","parameterNumber":2,"parameterNumberName":"U-component_of_CURRENTS"},"data":[0,0,0,-0.2243,-0.2248,-0.2475,-0.2476,-0.2617,-0.2618,0,0,0,0,0,0,0,0,0,0,0,-0.2164,-0.2166,-0.2243,-0.2248,-0.2475,-0.2476,-0.2617,-0.2618,0,0,0,0,0,0,0,0,0,0,0,-0.2163,-0.2165,-0.2168,-0.2249,-0.2475,-0.2476,-0.2616,-0.2482,0,0,0,0,0,0,0,0,0,0,-0.228,-0.2232,-0.2165,-0.2168,-0.2251,-0.2474,-0.2476,-0.2477,-0.249,-0.2472,0,-0.252,0,-0.2571,-0.2624,-0.2624,0,0,0,-0.2246,-0.2221,-0.2281,-0.2168,-0.2253,-0.2474,-0.2372,-0.2485,-0.25,-0.2489,-0.2522,-0.2529,-0.2573,-0.2624,-0.2625,-0.2772,-0.2773,0,0,-0.2234,-0.2203,-0.2271,-0.2291,-0.2325,-0.2365,-0.2379,-0.2496,-0.2514,-0.2523,-0.2533,-0.2575,-0.2625,-0.2626,-0.2771,-0.2772,0,0,0,-0.2199,-0.2194,-0.2254,-0.2283,-0.2337,-0.2371,-0.2388,-0.2509,-0.253,-0.2535,-0.2577,-0.2626,-0.2627,-0.277,-0.2771,-0.2827,0,0,0,-0.2192,-0.2174,-0.2248,-0.2232,-0.2335,-0.2447,-0.2398,-0.2522,-0.2537,-0.2576,-0.2626,-0.2628,-0.2769,-0.2771,-0.2823,-0.2843,0,0,0,-0.2151,-0.217,-0.22,-0.2229,-0.2329,-0.2447,-0.2476,-0.2527,-0.2562,-0.2624,-0.2628,-0.2768,-0.2771,-0.282,-0.2838,-0.2858,0,0,0,-0.2104,-0.2158,-0.22,-0.2282,-0.2327,-0.2474,-0.2476,-0.2592,-0.2653,-0.2626,-0.2769,-0.2771,-0.2819,-0.2835,-0.2855,-0.2488,0,0,0,-0.2139,-0.2162,-0.2211,-0.2254,-0.2385,-0.2442,-0.2582,-0.266,-0.2674,-0.2717,-0.2722,-0.2824,-0.2838,-0.2858,-0.262,0,0,0,0,-0.22,-0.2235,-0.2284,-0.2377,-0.2482,-0.2592,-0.2681,-0.2719,-0.2803,-0.2722,-0.2853,-0.2861,-0.2871,-0.2649,-0.2782,-0.2782,-0.2781,-0.2781,-0.2781,-0.2171,-0.2251,-0.2342,-0.2456,-0.2557,-0.2706,-0.2791,-0.2857,-0.286,-0.2912,-0.2927,-0.301,-0.2782,-0.2953,-0.2954,-0.2954,-0.2954,-0.2955,-0.2955,-0.2191,-0.2229,-0.2369,-0.2486,-0.2621,-0.2746,-0.2898,-0.2937,-0.3031,-0.3012,-0.3019,-0.2751,-0.2961,-0.296,-0.2959,-0.2958,-0.2958,-0.2957,-0.2957,-0.2125,-0.2153,-0.2266,-0.2434,-0.2603,-0.277,-0.2878,-0.3008,-0.3073,-0.3114,-0.2858,-0.3048,-0.3016,-0.3114,-0.3114,-0.3114,-0.3115,-0.3115,-0.3115,-0.1979,-0.2097,-0.2173,-0.2377,-0.2478,-0.2641,-0.2875,-0.2924,-0.3041,-0.2885,-0.3128,-0.3063,-0.3058,-0.3026,-0.3118,-0.3117,-0.3117,-0.3117,-0.3117,-0.1845,-0.1921,-0.2004,-0.2104,-0.2316,-0.241,-0.2688,-0.2725,-0.2748,-0.2681,-0.275,-0.2767,-0.2707,-0.2711,-0.2663,-0.2651,-0.2647,-0.2642,0,-0.1717,-0.1772,-0.1834,-0.192,-0.2009,-0.2247,-0.2211,-0.2333,-0.2444,-0.2359,-0.2731,-0.2808,-0.2818,-0.2749,-0.2745,-0.2686,0,0,0,-0.1606,-0.165,-0.1627,-0.1758,-0.1846,-0.1966,-0.2182,-0.2132,-0.2442,-0.237,-0.2531,-0.256,-0.2902,-0.3128,-0.3076,-0.307,-0.3015,0,0]},{"header":{"parameterUnit":"m.s-1","parameterCategory":2,"la1":30.2992,"la2":30.254,"lo1":-89.0895,"lo2":-89.0443,"dy":0.0025,"dx":0.0025,"nx":19,"ny":19,"refTime":"2026-04-19T09:00:00:Z","depth":"4","parameterNumber":3,"parameterNumberName":"V-component_of_CURRENTS"},"data":[0,0,0,-0.0245,-0.0243,-0.0141,-0.014,0.0054,0.0056,0,0,0,0,0,0,0,0,0,0,0,-0.0281,-0.0281,-0.0245,-0.0243,-0.0141,-0.014,0.0054,0.0056,0,0,0,0,0,0,0,0,0,0,0,-0.0282,-0.0281,-0.0281,-0.0243,-0.0141,-0.014,0.0053,-0.0034,0,0,0,0,0,0,0,0,0,0,-0.0138,-0.0196,-0.0281,-0.0281,-0.0243,-0.0142,-0.014,-0.0038,-0.0028,0.0019,0,0.0016,0,0.0033,0.0068,0.0069,0,0,0,-0.0219,-0.0205,-0.0176,-0.0281,-0.0242,-0.0142,-0.018,-0.0033,-0.0022,0.0032,0.0019,0.0026,0.0036,0.0069,0.007,0.0186,0.0186,0,0,-0.0225,-0.0256,-0.0184,-0.0169,-0.0237,-0.0184,-0.0178,-0.0027,-0.0023,0.002,0.003,0.0039,0.007,0.0072,0.0186,0.0186,0,0,0,-0.0257,-0.026,-0.0235,-0.0177,-0.0168,-0.0182,-0.0174,-0.003,-0.0022,0.0033,0.0041,0.0071,0.0074,0.0186,0.0186,0.0068,0,0,0,-0.0259,-0.028,-0.0238,-0.0254,-0.0172,-0.0108,-0.0181,-0.0032,-0.0015,0.004,0.0072,0.0076,0.0186,0.0186,0.0071,-0.0002,0,0,0,-0.0282,-0.0282,-0.0278,-0.0256,-0.0223,-0.0111,-0.0093,-0.0028,-0.001,0.0069,0.0076,0.0186,0.0186,0.0074,0.0005,0.0012,0,0,0,-0.0306,-0.033,-0.0279,-0.0301,-0.0224,-0.0187,-0.0094,-0.0048,0.0009,0.0072,0.0186,0.0186,0.0075,0.0009,0.0015,-0.0038,0,0,0,-0.0354,-0.0337,-0.0351,-0.0303,-0.0311,-0.0198,-0.0179,-0.0066,0.0027,0.0146,0.0149,0.007,0.0005,0.0012,-0.0051,0,0,0,0,-0.0377,-0.0393,-0.0384,-0.0376,-0.0321,-0.0271,-0.0154,-0.0087,0.0017,0.0056,0.0098,0.0061,0.0069,0.005,0.0184,0.0184,0.0185,0.0185,0.0185,-0.0473,-0.0452,-0.0486,-0.0452,-0.0421,-0.0311,-0.0254,-0.0136,-0.0037,-0.0008,-0.0014,-0.0065,-0.0089,0.0025,0.0024,0.0024,0.0023,0.0023,0.0023,-0.0575,-0.06,-0.0575,-0.0605,-0.0536,-0.0502,-0.0345,-0.0264,-0.0154,-0.0082,-0.0067,-0.0049,0.0012,0.0014,0.0016,0.0017,0.0018,0.0019,0.0019,-0.0646,-0.0658,-0.0681,-0.0726,-0.0724,-0.0629,-0.0595,-0.0449,-0.0281,-0.0267,-0.022,-0.0126,-0.0137,-0.0237,-0.0237,-0.0237,-0.0238,-0.0238,-0.0238,-0.071,-0.0731,-0.0812,-0.0848,-0.0885,-0.0875,-0.0734,-0.0645,-0.0463,-0.0366,-0.0291,-0.0151,-0.0142,-0.0149,-0.0243,-0.0242,-0.0241,-0.0241,-0.0241,-0.0789,-0.0804,-0.0929,-0.0993,-0.1075,-0.1056,-0.0946,-0.0738,-0.064,-0.0527,-0.0383,-0.0374,-0.0327,-0.0314,-0.0325,-0.0474,-0.0475,-0.0476,0,-0.0836,-0.0855,-0.1027,-0.1145,-0.1211,-0.1156,-0.1042,-0.0902,-0.0671,-0.0663,-0.0635,-0.0482,-0.0471,-0.0426,-0.0415,-0.0435,0,0,0,-0.0891,-0.0939,-0.1067,-0.1187,-0.1268,-0.1113,-0.1002,-0.0925,-0.0712,-0.0623,-0.0502,-0.0496,-0.0419,-0.0257,-0.0163,-0.0153,-0.0158,0,0]}]]